This is the latest recevied weather packets stored in our database for station/object IW3HBX-13. If no packets are shown the sender has not sent any weather packets the latest 10 day(s).
| Time | Temp. | Humidity | Pressure | Rain* | Wind** | Luminosity | Snow |
|---|---|---|---|---|---|---|---|
| 1777911487 | 23.89° C | 50% | 1015.8 hPa | 0 mm | - | 102 W/m² | - |
| 1777911130 | 23.89° C | 48% | 1015.7 hPa | 0 mm | - | 152 W/m² | - |
| 1777910769 | 23.89° C | 48% | 1015.8 hPa | 0 mm | - | 215 W/m² | - |
| 1777910048 | 23.89° C | 48% | 1015.8 hPa | 0 mm | - | 293 W/m² | - |
| 1777909687 | 23.33° C | 51% | 1015.8 hPa | 0 mm | - | 262 W/m² | - |
| 1777909327 | 23.33° C | 53% | 1015.8 hPa | 0 mm | - | 181 W/m² | - |
| 1777908969 | 23.33° C | 52% | 1015.8 hPa | 0 mm | - | 165 W/m² | - |
| 1777908610 | 23.33° C | 51% | 1015.8 hPa | 0 mm | - | 158 W/m² | - |
| 1777908247 | 23.33° C | 55% | 1015.8 hPa | 0 mm | - | 154 W/m² | - |
| 1777907887 | 23.89° C | 56% | 1015.8 hPa | 0 mm | - | 155 W/m² | - |
| 1777907527 | 23.89° C | 56% | 1015.8 hPa | 0 mm | - | 165 W/m² | - |
| 1777907167 | 24.44° C | 55% | 1015.8 hPa | 0 mm | - | 192 W/m² | - |
| 1777906448 | 25° C | 51% | 1015.8 hPa | 0 mm | - | 277 W/m² | - |
| 1777906087 | 25° C | 50% | 1015.8 hPa | 0 mm | - | 281 W/m² | - |
| 1777905727 | 25° C | 49% | 1015.9 hPa | 0 mm | - | 369 W/m² | - |
| 1777905370 | 25° C | 49% | 1015.9 hPa | 0 mm | - | 649 W/m² | - |
| 1777905009 | 25° C | 49% | 1016 hPa | 0 mm | - | 636 W/m² | - |
| 1777904647 | 25° C | 48% | 1016 hPa | 0 mm | - | 430 W/m² | - |
| 1777904287 | 24.44° C | 49% | 1016.1 hPa | 0 mm | - | 315 W/m² | - |
| 1777903927 | 24.44° C | 49% | 1016.1 hPa | 0 mm | - | 279 W/m² | - |
| 1777903568 | 24.44° C | 50% | 1016.1 hPa | 0 mm | - | 289 W/m² | - |
| 1777902850 | 24.44° C | 49% | 1016.2 hPa | 0 mm | - | 263 W/m² | - |
| 1777902489 | 24.44° C | 49% | 1016.3 hPa | 0 mm | - | 250 W/m² | - |
| 1777902127 | 24.44° C | 48% | 1016.3 hPa | 0 mm | - | 420 W/m² | - |
| 1777901768 | 24.44° C | 49% | 1016.4 hPa | 0 mm | - | 370 W/m² | - |
* Rain latest hour (hover to see other rain measurements)
** Current wind speed in m/s (hover to see current wind gust speed)